Skip Page Navigation
NASA JPL Caltech
NASA Logo - Jet Propulsion Laboratory + View the NASA Portal
+ Near-Earth Object (NEO) Program
Search JPL
JPL Home Earth Solar System Stars & Galaxies Technology
JPL Solar System Dynamics
BODIES ORBITS EPHEMERIDES TOOLS PHYSICAL DATA DISCOVERY FAQ SITE MAP
JPL Small-Body Database Browser
Search: [ help ]  
175476 Macheret (2006 RA1)
Classification: Main-belt Asteroid          SPK-ID: 2175476
Ephemeris | Orbit Diagram | Orbital Elements | Physical Parameters | Discovery Circumstances ]

[ show orbit diagram ]
Orbital Elements at Epoch 2456400.5 (2013-Apr-18.0) TDB
Reference: JPL 1 (heliocentric ecliptic J2000)
 Element Value Uncertainty (1-sigma)   Units 
e .1285895300273676 1.3604e-07  
a 2.595790051631073 2.08e-08 AU
q 2.261998628842117 3.6027e-07 AU
i 5.678084843488946 1.2356e-05 deg
node 327.116938203308 9.0828e-05 deg
peri 2.717618040942473 9.7751e-05 deg
M 233.6320071840095 3.4336e-05 deg
tp 2456936.713024836455
(2014-Oct-06.21302484)
0.00014687 JED
period 1527.575809661013
4.18
1.8361e-05
5.027e-08
d
yr
n .2356675182489884 2.8327e-09 deg/d
Q 2.929581474420029 2.3475e-08 AU
  Orbit Determination Parameters
   # obs. used (total)      172  
   data-arc span      19200 days (52.57 yr)  
   first obs. used      1960-09-24  
   last obs. used      2013-04-19  
   planetary ephem.      DE405  
   SB-pert. ephem.      SB405-CPV-2  
   condition code      0  
   fit RMS      .58206  
   data source      ORB  
   producer      Otto Matic  
   solution date      2013-Apr-29 20:24:16  

Additional Information
 Earth MOID = 1.25069 AU 
 T_jup = 3.399 
[ show covariance matrix ]

Ephemeris | Orbit Diagram | Orbital Elements | Physical Parameters | Discovery Circumstances ]

Physical Parameter Table
Parameter Symbol Value Units Sigma Reference Notes
absolute magnitude H 16.079 mag .56915 1 autocmod 2.5c

175476 Macheret           Discovered 2006 Sept. 4 by P. Kocher at Observatoire Naef.
Augustin Macheret (b. 1938) was professor of law at the University of Fribourg, Switzerland, and rector of this university. He was also state councilor of the Canton Fribourg and chairman of the Foundation Robert A. Naef, owner of the Observatoire Naef.
NOTE: some special characters may not display properly (any characters within {} are an attempt to place the proper accent above a character)
Reference: 20080520/MPCPages.arcLast Updated: 2008-05-22

Alternate Designations
 2006 RA1 = 2002 TU280 
Ephemeris | Orbit Diagram | Orbital Elements | Physical Parameters | Discovery Circumstances ]
ABOUT SSD CREDITS/AWARDS PRIVACY/COPYRIGHT GLOSSARY LINKS
FirstGov 2013-May-25 05:24 UT
(server date/time)  
NASA Home Page
Site Manager:   Donald K. Yeomans
Webmaster  Alan B. Chamberlin